小惑星A/2017 U7

A/2017 U7

English version
Home page
Updated on March 5, 2018

---------------------------------------------------------------------

・ プロフィール

発見日 2017年10月29日
発見光度 20.1等
発見者 Pan-STARRS 1 telescope (Haleakala)

・ 軌道要素

Epoch 2019 Aug. 25.0 TT = JDT 2458720.5
T 2019 Sept. 11.21093 TT                                MPCW
q   6.4178352            (2000.0)            P               Q
z  -0.0001150      Peri.  326.02357     +0.53158001     -0.59451857
 +/-0.0000023      Node   276.23314     -0.57718434     -0.77555085
e   1.0007381      Incl.  142.63523     -0.61990397     +0.21229355
From 87 observations 2017 Aug. 18-2018 Feb. 10, mean residual 0".2.

・ 光度変化

        H = 10.0  G = 0.15

---------------------------------------------------------------------

軌道要素はM.P.E.C. 2018-E17に掲載されたものです。
光度グラフはComet for Windowsで作成したものです。

---------------------------------------------------------------------

Copyright(C) Seiichi Yoshida (comet@aerith.net). All rights reserved.